Woensdrecht, Netherlands

9:51 AM CEST on March 28, 2017 (GMT +0200)
Woensdrecht Air Base

Weather History for EHWO - January, 2014

Change the Weather History Date:

Saturday, January 4, 2014

  Actual Average Record
Temperature  
Mean Temperature 46 °F -  
Max Temperature 50 °F 41 °F 55 °F (1999)
Min Temperature 42 °F 33 °F 21 °F (2002)
Degree Days  
Heating Degree Days 19    
Moisture  
Dew Point 43 °F    
Average Humidity 81    
Maximum Humidity 93    
Minimum Humidity 63    
Precipitation  
Precipitation 0.00 in - - ()
Sea Level Pressure  
Sea Level Pressure 29.49 in    
Wind  
Wind Speed 9 mph ()    
Max Wind Speed 14 mph    
Max Gust Speed -    
Visibility 6.9 miles    
Events Rain    
Averages and records for this station are not official NWS values.
T = Trace of Precipitation, MM = Missing Value Source: Averaged Metar Reports

Daily Weather History Graph

Daily Weather History Graph

Search for Another Location

Airport or City:

Trip Planner

Search our weather history database for the weather conditions in past years. The results will help you decide how hot, cold, wet, or windy it might be!

Date:

Astronomy

Jan. 04, 2014 Rise Set
Actual Time 8:47 AM CET 4:47 PM CET
Civil Twilight 8:07 AM CET 5:27 PM CET
Nautical Twilight 7:25 AM CET 6:10 PM CET
Astronomical Twilight 6:44 AM CET 6:50 PM CET
Moon 10:15 AM CET (1/4) 9:20 PM CET (1/4)
Length of Visible Light 9h 19m
Length of Day
8h 00m
Waxing Crescent, 13% of the Moon is Illuminated
Jan 4
Waxing Crescent
Jan 8
First Quarter
Jan 16
Full
Jan 24
Last Quarter
Jan 30
New

Hourly Weather History & Observations

Time (CET) Temp. Windchill Dew Point Humidity Pressure Visibility Wind Dir Wind Speed Gust Speed Precip Events Conditions
12:00 AM 44 °F - 41 °F 87% 29.71 in 6 mi SW 11.2 mph - - Rain Light Rain Showers
12:08 AM 44.6 °F 39.7 °F 41.0 °F 87% 29.68 in 6.2 mi SW 9.2 mph - N/A   Mostly Cloudy
12:12 AM 44.6 °F 40.2 °F 41.0 °F 87% 29.68 in 6.2 mi SW 8.1 mph - N/A   Mostly Cloudy
12:25 AM 44.6 °F 40.7 °F 41.0 °F 87% 29.68 in 6.2 mi SW 6.9 mph - N/A   Overcast
12:55 AM 44.6 °F 41.4 °F 41.0 °F 87% 29.68 in 6.2 mi SSW 5.8 mph - N/A   Mostly Cloudy
1:00 AM 45 °F - 40 °F 78% 29.71 in 16 mi SSW 8.9 mph - - Rain Rain
1:25 AM 46.4 °F 41.1 °F 39.2 °F 76% 29.68 in 6.2 mi SSW 11.5 mph - N/A   Overcast
1:55 AM 46.4 °F 40.7 °F 39.2 °F 76% 29.68 in 6.2 mi SSW 12.7 mph - N/A   Overcast
2:00 AM 46 °F - 39 °F 67% 29.70 in 12 mi SSW 13.4 mph - -   Overcast
2:25 AM 46.4 °F 40.7 °F 39.2 °F 76% 29.68 in 6.2 mi SSW 12.7 mph - N/A   Overcast
2:55 AM 46.4 °F 40.4 °F 39.2 °F 76% 29.68 in 6.2 mi SSW 13.8 mph - N/A   Mostly Cloudy
3:00 AM 47 °F - 38 °F 63% 29.71 in 11 mi SSW 13.4 mph - -   Partly Cloudy
3:25 AM 46.4 °F 41.1 °F 39.2 °F 76% 29.71 in 6.2 mi South 11.5 mph - N/A   Overcast
3:55 AM 44.6 °F 40.2 °F 39.2 °F 81% 29.71 in 6.2 mi South 8.1 mph - N/A   Mostly Cloudy
4:00 AM 45 °F - 39 °F 73% 29.71 in 9 mi South 8.9 mph - -   Mostly Cloudy
4:25 AM 44.6 °F 40.2 °F 39.2 °F 81% 29.71 in 6.2 mi South 8.1 mph - N/A   Overcast
4:55 AM 46.4 °F 41.9 °F 39.2 °F 76% 29.68 in 6.2 mi South 9.2 mph - N/A   Overcast
5:00 AM 46 °F - 40 °F 72% 29.70 in 7 mi South 8.9 mph - -   Partly Cloudy
5:25 AM 46.4 °F 41.9 °F 39.2 °F 76% 29.68 in 6.2 mi South 9.2 mph - N/A   Overcast
5:55 AM 46.4 °F 41.5 °F 41.0 °F 81% 29.68 in 6.2 mi South 10.4 mph - N/A   Overcast
6:00 AM 46 °F - 41 °F 76% 29.68 in 8 mi South 11.2 mph - -   Overcast
6:25 AM 46.4 °F 41.5 °F 41.0 °F 81% 29.65 in 6.2 mi South 10.4 mph - N/A   Mostly Cloudy
6:55 AM 46.4 °F 41.5 °F 41.0 °F 81% 29.65 in 6.2 mi South 10.4 mph - N/A   Overcast
7:00 AM 46 °F - 41 °F 77% 29.65 in 8 mi South 11.2 mph - -   Partly Cloudy
7:25 AM 46.4 °F 41.9 °F 41.0 °F 81% 29.62 in 6.2 mi South 9.2 mph - N/A   Mostly Cloudy
7:55 AM 46.4 °F 41.5 °F 41.0 °F 81% 29.62 in 6.2 mi South 10.4 mph - N/A   Overcast
8:00 AM 47 °F - 42 °F 76% 29.62 in 7 mi South 11.2 mph - -   Overcast
8:25 AM 46.4 °F 41.1 °F 41.0 °F 81% 29.59 in 6.2 mi South 11.5 mph - N/A   Mostly Cloudy
8:55 AM 46.4 °F 42.4 °F 41.0 °F 81% 29.59 in 6.2 mi South 8.1 mph - N/A   Overcast
9:00 AM 47 °F - 41 °F 73% 29.61 in 7 mi South 6.7 mph - -   Overcast
9:25 AM 46.4 °F 42.4 °F 41.0 °F 81% 29.59 in 6.2 mi SSE 8.1 mph - N/A   Overcast
9:55 AM 46.4 °F 42.4 °F 41.0 °F 81% 29.56 in 6.2 mi SSE 8.1 mph - N/A   Overcast
10:00 AM 45 °F - 41 °F 81% 29.58 in 7 mi SSE 8.9 mph - -   Overcast
10:25 AM 46.4 °F 42.4 °F 41.0 °F 81% 29.56 in 6.2 mi SSE 8.1 mph - N/A   Overcast
10:55 AM 46.4 °F 41.5 °F 41.0 °F 81% 29.53 in 6.2 mi SSE 10.4 mph - N/A   Overcast
11:00 AM 46 °F - 42 °F 80% 29.55 in 7 mi SSE 11.2 mph - -   Overcast
11:25 AM 46.4 °F 41.5 °F 41.0 °F 81% 29.53 in 6.2 mi SSE 10.4 mph - N/A   Overcast
11:55 AM 48.2 °F - 41.0 °F 76% 29.50 in 6.2 mi SSE 10.4 mph - N/A   Overcast
12:00 PM 48 °F - 42 °F 72% 29.51 in 9 mi SSE 11.2 mph - -   Overcast
12:25 PM 48.2 °F - 42.8 °F 82% 29.47 in 6.2 mi SSE 10.4 mph - N/A   Overcast
12:55 PM 48.2 °F - 42.8 °F 82% 29.44 in 6.2 mi SE 8.1 mph - N/A   Overcast
1:00 PM 49 °F - 42 °F 69% 29.46 in 11 mi SE 8.9 mph - -   Partly Cloudy
1:25 PM 48.2 °F - 42.8 °F 82% 29.44 in 6.2 mi SE 8.1 mph - N/A   Scattered Clouds
1:55 PM 48.2 °F - 42.8 °F 82% 29.42 in 6.2 mi SSE 11.5 mph - N/A   Overcast
2:00 PM 49 °F - 42 °F 69% 29.43 in 12 mi SSE 11.2 mph - -   Overcast
2:25 PM 50.0 °F - 42.8 °F 76% 29.42 in 6.2 mi SSE 11.5 mph - N/A   Mostly Cloudy
2:55 PM 48.2 °F - 44.6 °F 87% 29.39 in 6.2 mi SSE 10.4 mph - N/A Rain Rain
3:00 PM 48 °F - 45 °F 84% 29.41 in 7 mi SSE 8.9 mph - - Rain Rain Showers
3:13 PM 48.2 °F - 44.6 °F 87% 29.39 in 6.2 mi SSE 8.1 mph - N/A   Mostly Cloudy
3:25 PM 48.2 °F - 44.6 °F 87% 29.39 in 6.2 mi SE 6.9 mph - N/A   Mostly Cloudy
3:55 PM 50.0 °F - 44.6 °F 82% 29.39 in 6.2 mi SSE 9.2 mph - N/A   Overcast
4:00 PM 50 °F - 44 °F 74% 29.39 in 25 mi SSE 8.9 mph - - Rain Rain
4:25 PM 50.0 °F - 44.6 °F 82% 29.39 in 6.2 mi SSE 9.2 mph - N/A   Overcast
4:35 PM 50.0 °F - 44.6 °F 82% 29.39 in 6.2 mi SSE 9.2 mph - N/A   Overcast
4:41 PM 50.0 °F - 44.6 °F 82% 29.36 in 6.2 mi SSE 9.2 mph - N/A   Overcast
4:45 PM 50.0 °F - 44.6 °F 82% 29.36 in 6.2 mi SSE 10.4 mph - N/A   Overcast
4:55 PM 50.0 °F - 44.6 °F 82% 29.36 in 6.2 mi SSE 9.2 mph - N/A   Overcast
5:00 PM 51 °F - 44 °F 71% 29.38 in 28 mi SSE 8.9 mph - -   Partly Cloudy
5:12 PM 50.0 °F - 44.6 °F 82% 29.36 in 6.2 mi SSE 10.4 mph - N/A   Overcast
5:25 PM 50.0 °F - 44.6 °F 82% 29.36 in 6.2 mi South 10.4 mph - N/A   Overcast
5:32 PM 50.0 °F - 44.6 °F 82% 29.36 in 6.2 mi South 10.4 mph - N/A   Mostly Cloudy
5:36 PM 50.0 °F - 44.6 °F 82% 29.36 in 6.2 mi South 10.4 mph - N/A   Mostly Cloudy
5:40 PM 50.0 °F - 44.6 °F 82% 29.36 in 6.2 mi South 10.4 mph - N/A Rain Light Rain
5:44 PM 50.0 °F - 44.6 °F 82% 29.39 in 6.2 mi South 10.4 mph - N/A Rain Light Drizzle
5:50 PM 50.0 °F - 44.6 °F 82% 29.39 in 6.2 mi South 9.2 mph - N/A Rain Light Rain
5:55 PM 50.0 °F - 44.6 °F 82% 29.39 in 6.2 mi South 9.2 mph - N/A Rain Light Rain
6:00 PM 50 °F - 45 °F 77% 29.38 in 19 mi South 8.9 mph - - Rain Heavy Rain
6:03 PM 50.0 °F - 44.6 °F 82% 29.36 in 6.2 mi South 9.2 mph - N/A Rain Light Drizzle
6:09 PM 50.0 °F - 44.6 °F 82% 29.36 in 6.2 mi SSE 8.1 mph - N/A   Overcast
6:25 PM 50.0 °F - 44.6 °F 82% 29.36 in 6.2 mi SSE 9.2 mph - N/A   Overcast
6:55 PM 50.0 °F - 44.6 °F 82% 29.33 in 6.2 mi South 8.1 mph - N/A   Overcast
7:00 PM 49 °F - 44 °F 79% 29.36 in 28 mi South 6.7 mph - - Rain Rain
7:25 PM 48.2 °F - 44.6 °F 87% 29.33 in 6.2 mi South 5.8 mph - N/A   Overcast
7:55 PM 48.2 °F - 44.6 °F 87% 29.33 in 6.2 mi SSE 5.8 mph - N/A   Overcast
8:00 PM 48 °F - 44 °F 82% 29.35 in 25 mi SSE 4.5 mph - -   Overcast
8:25 PM 48.2 °F - 44.6 °F 87% 29.33 in 6.2 mi SSE 5.8 mph - N/A   Overcast
8:55 PM 48.2 °F - 44.6 °F 87% 29.33 in 6.2 mi South 6.9 mph - N/A   Overcast
9:00 PM 49 °F - 44 °F 77% 29.34 in 25 mi South 6.7 mph - -   Overcast
9:25 PM 50.0 °F - 44.6 °F 82% 29.33 in 6.2 mi South 8.1 mph - N/A   Overcast
9:29 PM 50.0 °F - 44.6 °F 82% 29.33 in 6.2 mi SSW 8.1 mph - N/A   Mostly Cloudy
9:36 PM 50.0 °F - 44.6 °F 82% 29.33 in 6.2 mi SSW 9.2 mph - N/A   Mostly Cloudy
9:49 PM 50.0 °F - 44.6 °F 82% 29.33 in 6.2 mi SSW 10.4 mph - N/A   Mostly Cloudy
9:55 PM 50.0 °F - 44.6 °F 82% 29.33 in 6.2 mi SSW 10.4 mph - N/A   Overcast
10:00 PM 50 °F - 45 °F 75% 29.36 in 22 mi SSW 11.2 mph - -   Partly Cloudy
10:07 PM 50.0 °F - 44.6 °F 82% 29.36 in 6.2 mi SW 10.4 mph - N/A   Mostly Cloudy
10:25 PM 48.2 °F - 44.6 °F 87% 29.36 in 6.2 mi SSW 13.8 mph - N/A Rain Light Rain Showers
10:40 PM 46.4 °F 41.1 °F 44.6 °F 93% 29.36 in 6.2 mi SW 11.5 mph - N/A Rain Rain Showers
10:50 PM 46.4 °F 41.1 °F 44.6 °F 93% 29.36 in 6.2 mi SW 11.5 mph - N/A Rain Light Rain
10:55 PM 46.4 °F 41.1 °F 44.6 °F 93% 29.36 in 6.2 mi SW 11.5 mph - N/A   Mostly Cloudy
11:00 PM 47 °F - 44 °F 85% 29.38 in 28 mi SSW 11.2 mph - - Rain Rain
11:00 PM 46.4 °F 41.5 °F 44.6 °F 93% 29.36 in 6.2 mi SW 10.4 mph - N/A   Mostly Cloudy
11:25 PM 46.4 °F 41.1 °F 42.8 °F 87% 29.36 in 6.2 mi SW 11.5 mph - N/A   Overcast
11:55 PM 46.4 °F 41.5 °F 42.8 °F 87% 29.36 in 6.2 mi SW 10.4 mph - N/A   Overcast